Theta_e
315 320 320 319 318 320 324 326 325 323 322 319 319 319 318 319 319 319 319 320 321 320 319 320 320 321 322 322 323 327 329 328 331 336 339 337 337 338 339 339 338 336 337 335 334 334 335 334 330 330 332 333 332 332 333 333 332 332 331 331 329 328 327 325 325 325 325 324 322 320 319 317 314 311 310 309 306 305 305 305 309 313 318 323 324 324 327 323 312 304 305 305 307 308 308 308 308
316 320 319 319 318 323 326 325 324 321 320 318 318 318 318 319 319 320 321 321 320 320 321 321 321 320 320 322 321 327 330 330 330 334 335 334 337 338 337 338 338 338 337 335 334 333 334 334 330 329 332 332 332 332 333 332 332 332 331 331 329 329 328 326 325 324 324 324 322 320 319 319 316 313 311 310 307 305 305 304 310 316 323 328 326 326 328 323 312 305 305 307 308 308 309 308 309
317 320 319 321 321 324 326 324 322 319 318 317 316 317 318 319 321 321 321 321 321 321 320 320 320 320 323 321 319 326 330 329 328 327 327 330 333 333 335 337 338 339 337 336 335 333 333 333 330 329 332 331 331 332 332 332 332 331 330 330 329 329 328 327 326 324 324 323 323 320 319 320 317 315 311 311 309 306 306 304 310 318 324 326 324 324 322 318 316 310 306 307 307 308 308 308 309
318 320 322 325 326 327 327 325 323 320 317 316 315 317 320 321 322 321 321 321 321 320 320 321 320 320 323 322 321 326 329 330 330 331 332 333 331 328 335 338 339 340 337 337 336 335 332 332 330 327 330 330 331 333 332 332 332 331 330 330 329 328 328 328 327 324 323 322 323 320 319 320 319 317 313 311 310 308 305 306 316 322 324 325 325 325 322 320 317 309 306 307 307 308 308 307 308
319 320 322 324 327 327 325 324 323 320 318 317 316 318 321 321 322 320 320 320 319 320 320 322 320 319 322 324 325 324 327 332 334 336 336 337 331 325 334 339 340 340 337 338 337 336 333 331 331 328 327 329 331 332 332 331 331 330 329 330 328 327 327 328 328 325 322 322 324 321 319 321 320 317 315 312 310 310 305 309 322 323 324 328 329 327 325 321 312 306 307 307 307 308 307 307 307
321 322 322 323 325 325 323 321 319 318 318 319 317 318 321 320 321 320 319 319 318 319 320 321 320 320 323 323 324 325 328 331 333 334 335 336 329 324 334 339 340 339 338 338 338 337 334 332 331 329 327 328 331 331 331 331 329 328 329 330 327 327 327 329 329 326 323 322 324 322 319 320 321 318 316 313 310 311 306 311 319 320 325 329 329 329 324 315 307 307 307 306 307 307 306 307 307
321 323 323 324 325 323 324 322 319 318 317 319 318 319 320 320 320 319 319 318 318 318 318 320 320 321 322 321 322 324 327 328 329 328 332 332 322 327 336 338 339 340 338 338 338 337 335 333 331 330 330 328 329 330 331 331 330 328 329 330 327 327 328 329 329 327 323 322 324 322 319 319 322 319 317 315 311 310 307 310 315 316 324 327 328 327 318 310 307 307 306 307 307 306 307 307 308
322 324 323 325 327 324 325 322 319 319 317 318 318 319 320 319 319 319 319 318 318 318 318 318 320 320 319 321 323 322 321 323 325 321 324 323 319 330 337 337 340 340 339 338 338 338 335 334 333 331 331 330 329 329 330 330 330 329 329 329 327 327 328 329 329 328 325 322 323 322 319 318 321 321 318 316 312 310 308 309 311 314 320 323 324 319 310 307 306 306 306 306 306 307 308 308 308
322 323 323 325 326 323 322 320 318 318 317 318 318 319 319 319 319 319 319 318 318 318 318 318 319 319 319 322 322 322 319 316 319 316 317 318 318 328 336 338 339 339 339 338 338 338 336 335 335 333 332 331 331 328 328 329 328 328 330 329 328 328 327 328 329 329 326 323 322 322 319 317 319 321 320 318 313 310 308 308 309 314 318 318 315 310 307 307 306 306 306 306 306 308 308 308 308
322 322 323 325 325 322 319 319 319 318 317 317 317 318 318 318 319 319 318 317 318 319 319 319 318 317 319 321 321 322 319 315 316 315 316 316 317 327 337 339 338 339 339 338 338 338 336 335 336 335 334 334 333 331 329 329 327 327 329 329 328 328 327 327 328 328 327 324 321 320 319 316 317 321 321 319 315 311 309 308 307 310 312 310 308 306 306 306 306 306 305 306 307 307 307 308 306
323 321 322 325 324 320 319 320 319 318 317 317 317 317 317 318 318 318 318 317 317 319 318 318 318 317 318 320 321 320 318 316 315 315 316 316 320 331 338 338 338 338 337 338 338 337 337 336 336 336 335 335 335 334 331 329 326 325 327 329 328 327 327 327 327 327 327 325 323 319 318 317 317 320 321 320 316 312 310 309 307 307 306 306 306 305 305 305 305 305 306 306 307 307 308 308 307
325 324 323 324 324 321 320 320 319 318 318 317 317 317 317 317 317 317 318 317 317 318 317 317 318 317 318 320 319 318 317 316 315 314 315 316 321 330 336 338 337 336 336 338 338 337 337 336 336 336 336 335 336 336 332 330 328 324 325 328 329 326 327 328 327 327 327 326 325 320 317 317 317 319 321 321 317 313 311 309 308 307 306 306 305 305 305 305 305 305 307 307 308 309 310 310 309
325 326 324 324 325 323 320 321 320 320 318 317 317 317 317 317 317 317 317 317 316 317 317 317 318 316 318 321 319 318 317 315 315 315 315 316 316 322 332 336 334 335 337 337 338 338 337 336 336 336 336 336 336 336 334 331 329 326 324 327 329 327 327 327 327 328 327 326 326 323 319 318 318 319 321 321 318 314 312 310 309 308 305 305 304 304 305 305 306 307 309 310 311 313 314 313 312
325 325 325 326 325 322 322 322 321 320 318 317 317 316 317 317 317 317 317 317 317 318 318 316 317 317 317 320 320 322 321 315 315 315 314 316 315 318 326 332 332 335 337 337 337 337 338 337 337 337 336 336 336 336 335 333 330 327 324 325 329 328 327 327 327 328 327 325 326 324 321 320 319 320 321 322 320 315 313 311 310 309 307 306 306 306 307 307 309 310 311 313 315 317 317 317 316
323 323 324 326 324 321 323 323 321 321 319 317 317 316 317 317 317 317 316 317 317 317 317 315 315 317 317 320 321 322 321 314 315 315 315 315 315 317 320 328 330 332 335 336 337 337 337 337 337 337 336 336 336 336 336 334 332 328 325 324 327 327 326 327 326 327 326 325 324 323 322 321 321 320 321 322 321 318 315 313 312 311 310 310 310 311 312 312 313 314 315 317 318 319 319 319 319
320 322 325 324 322 321 323 323 321 321 318 317 317 316 316 316 316 316 317 317 317 316 316 316 315 316 319 322 320 319 318 316 316 315 315 315 315 316 316 321 326 329 331 331 335 336 336 336 337 336 336 336 336 337 336 336 333 330 328 325 325 326 326 326 326 327 326 326 325 323 323 322 322 321 321 322 322 320 317 316 315 315 315 315 315 316 316 317 317 317 317 319 319 320 320 320 320
317 323 326 322 322 321 321 322 321 320 318 317 316 316 316 316 316 316 316 316 316 316 316 317 316 316 317 318 316 316 317 315 316 316 315 315 314 315 315 316 319 325 326 325 330 333 334 334 334 334 334 334 334 336 336 336 335 333 331 328 325 325 326 327 327 327 327 327 326 325 324 324 324 322 321 322 322 321 319 318 319 319 319 319 319 318 319 319 319 319 319 319 319 320 320 320 320
319 324 323 321 323 321 320 320 319 320 318 316 316 316 317 316 315 315 315 315 316 316 316 317 316 316 315 315 314 314 315 315 315 316 315 315 315 314 315 315 315 319 321 323 325 327 330 331 331 332 332 331 332 335 336 335 335 334 334 332 328 326 327 328 328 328 328 328 327 326 326 327 327 324 322 322 322 322 321 320 320 321 322 321 321 320 320 320 320 320 320 320 320 320 320 321 320
320 324 322 322 323 320 319 319 318 319 318 316 316 316 317 316 315 315 315 315 316 317 316 317 316 316 315 315 315 314 314 315 314 315 315 315 315 315 314 314 315 317 318 320 320 319 323 327 330 329 330 331 329 331 335 335 334 334 334 334 331 328 328 328 328 327 327 327 328 328 327 327 328 326 324 323 322 323 322 321 321 321 322 323 323 323 322 322 322 321 321 321 320 321 321 321 320
320 323 322 322 320 318 318 318 317 318 318 317 317 317 317 317 316 316 316 316 315 316 316 317 317 316 316 315 315 315 314 314 314 314 315 315 315 315 315 314 316 317 317 318 317 316 318 321 327 328 327 330 329 328 331 334 334 333 334 334 333 331 330 329 329 328 328 328 329 329 328 328 327 327 327 325 323 323 323 322 321 322 322 323 324 324 324 324 324 323 323 322 321 321 321 321 320
319 319 320 319 318 318 317 316 316 318 318 318 317 317 317 317 317 316 316 317 316 317 317 316 318 317 316 316 315 315 315 315 314 314 314 315 315 314 315 314 315 317 317 317 315 315 317 318 324 327 324 327 329 327 327 331 333 333 333 334 333 333 332 331 330 330 330 330 330 329 329 329 328 328 328 328 326 324 323 323 322 322 322 323 324 324 324 324 324 324 324 323 322 321 321 320 319
318 317 317 317 317 318 316 316 316 317 318 317 317 316 317 317 317 317 316 317 317 317 317 317 318 317 318 317 316 315 315 315 314 314 314 314 315 316 318 315 318 323 320 316 316 315 317 320 325 327 324 324 327 327 327 328 330 332 334 333 333 334 333 333 332 332 331 331 330 330 330 330 329 329 328 329 328 326 324 323 323 322 323 323 323 324 324 324 324 324 324 324 322 321 320 319 315
318 316 316 317 317 316 315 315 315 317 318 317 317 316 317 317 316 317 316 316 317 317 317 317 317 317 317 317 316 315 314 315 314 314 314 314 314 317 323 322 321 325 321 316 317 316 315 319 322 324 322 322 327 330 329 327 327 331 333 333 333 334 334 333 333 333 332 332 331 331 331 330 329 329 329 329 329 328 326 324 324 323 323 323 323 324 324 324 324 324 324 324 323 321 319 317 312
317 317 316 316 316 315 315 315 315 316 317 316 316 316 317 316 316 316 316 316 316 317 317 316 316 315 316 316 315 314 314 314 314 314 314 314 314 314 321 326 325 322 319 317 317 316 314 316 318 318 319 321 327 332 331 327 325 328 332 332 332 333 334 333 333 333 332 332 332 331 331 331 330 330 329 329 329 329 328 325 324 323 324 323 323 324 324 324 324 324 324 323 323 321 318 314 310
317 317 316 316 315 314 314 314 315 315 315 315 316 316 317 316 316 316 316 317 316 316 316 316 316 315 315 315 315 314 314 314 313 314 314 313 314 314 318 326 328 323 319 318 317 315 313 314 315 316 318 319 325 331 329 326 324 325 330 331 330 331 333 334 333 332 332 332 332 331 331 331 331 330 329 329 329 329 329 327 325 324 324 324 323 324 324 323 323 323 322 322 322 319 315 312 309
317 317 316 316 315 314 314 315 315 315 315 315 316 316 316 316 316 316 316 316 316 316 316 316 316 315 315 315 315 315 314 314 314 314 314 313 314 315 317 321 324 321 318 317 316 315 313 314 314 315 318 319 322 327 326 325 326 324 325 327 327 331 334 334 333 332 331 332 332 331 331 331 330 330 329 329 329 329 329 328 326 325 325 324 324 324 324 323 322 322 322 323 321 317 314 311 309
317 317 316 316 315 314 315 315 315 316 315 314 316 316 316 316 315 316 317 317 316 317 317 316 316 315 315 315 315 315 315 315 314 314 314 314 313 314 316 317 318 317 316 315 315 314 313 314 314 314 316 318 320 322 323 324 328 326 322 321 325 333 336 334 333 332 331 331 332 331 329 329 329 330 330 329 329 329 328 327 327 326 325 326 324 324 324 322 321 321 322 323 321 316 312 308 306
317 317 316 315 315 315 315 316 315 315 315 315 316 316 316 316 316 316 318 318 317 317 317 316 316 316 315 315 315 315 316 316 315 315 314 314 314 314 315 315 314 314 314 314 314 313 313 313 314 314 314 316 317 320 322 324 328 329 324 318 321 329 334 335 332 331 331 331 331 330 327 327 328 329 330 330 330 329 327 326 327 326 325 326 324 323 324 322 321 322 322 321 318 314 309 306 304
317 316 316 316 316 316 315 316 316 315 316 316 316 317 318 317 317 317 317 318 317 317 317 316 317 316 316 315 316 315 316 316 316 315 315 315 315 314 314 314 314 314 314 313 313 313 313 313 314 314 314 314 314 316 319 320 323 325 321 316 315 319 328 333 332 331 333 331 331 331 328 328 328 328 330 330 330 328 327 327 328 326 325 326 325 324 323 322 321 321 321 319 316 313 308 305 303
317 317 317 317 316 316 317 316 316 316 316 316 316 320 321 318 317 317 317 318 318 317 317 317 317 317 317 316 316 316 316 316 316 315 316 315 315 315 315 315 314 314 313 313 313 313 313 313 314 314 314 314 313 313 314 315 317 317 316 314 313 314 319 326 329 331 334 333 332 331 329 329 328 328 329 329 329 328 327 328 328 327 326 326 325 324 323 322 321 321 319 316 314 312 307 303 302
317 317 318 319 318 317 317 317 316 316 316 316 316 319 321 319 318 318 318 318 317 317 317 317 318 318 318 317 317 317 316 316 316 316 316 315 315 316 315 315 315 314 314 313 313 313 313 313 313 314 314 313 313 313 313 313 313 314 314 313 314 314 314 319 324 326 331 333 333 332 330 328 327 328 329 329 328 327 327 328 328 328 327 326 325 323 322 322 321 321 319 315 314 311 306 303 302
318 317 317 320 320 318 318 317 316 316 316 315 317 319 320 318 318 318 318 318 317 317 317 317 318 318 318 318 318 317 317 316 316 316 316 316 316 316 316 315 315 314 314 314 314 313 313 313 313 313 313 313 313 313 313 313 313 313 314 314 314 314 313 315 317 319 326 332 332 332 331 328 326 326 328 328 327 327 327 328 328 328 327 326 324 323 322 322 321 321 319 315 313 311 306 303 302
318 318 319 321 319 318 318 316 316 316 316 315 316 318 319 318 317 317 318 317 317 317 317 318 318 318 318 318 319 318 317 317 316 317 316 316 316 316 316 315 315 315 314 314 314 314 313 313 313 313 313 313 313 313 313 313 313 313 313 314 314 313 313 313 313 315 321 329 330 330 331 328 323 322 325 327 327 327 326 326 327 328 328 326 324 323 322 321 321 321 318 313 311 310 305 303 303
319 318 319 321 320 318 317 317 316 316 316 316 317 317 318 318 317 317 317 317 317 317 317 318 318 318 319 318 319 318 318 317 317 317 317 317 316 316 316 316 315 315 315 315 314 314 314 314 314 313 313 313 313 312 313 313 313 313 314 314 314 313 313 313 313 313 317 322 324 325 329 326 323 323 326 327 326 325 324 324 327 328 327 326 324 323 322 321 320 319 317 312 309 307 304 303 303
320 319 318 320 319 317 317 317 316 316 317 317 317 317 317 317 317 317 317 317 317 317 317 318 318 318 318 318 318 318 318 318 318 318 317 317 316 316 316 316 316 315 315 315 315 314 314 314 314 313 313 313 313 312 312 313 313 313 314 314 313 313 313 313 313 313 314 317 318 321 325 325 326 328 328 326 324 323 323 324 327 327 327 326 324 323 322 321 320 319 317 313 308 305 303 303 302
318 319 319 319 318 316 317 317 315 315 317 317 317 317 317 317 318 317 317 318 317 317 318 318 318 318 317 318 318 318 318 318 318 318 318 317 317 316 316 316 316 316 315 315 315 315 314 315 314 314 313 313 313 312 312 312 313 313 313 313 313 313 314 313 314 316 317 318 319 321 323 325 328 329 328 326 323 322 323 324 327 327 327 326 323 322 321 320 320 319 317 314 309 304 303 303 302
316 318 318 318 318 317 317 317 315 315 316 317 317 317 317 317 318 317 317 318 317 317 317 318 318 318 318 317 318 318 318 318 318 317 318 318 317 316 316 316 316 316 315 316 315 315 315 315 315 314 313 313 313 313 312 312 313 313 313 313 313 314 314 313 315 320 323 323 324 324 325 327 328 328 328 326 323 324 325 326 327 326 325 324 322 321 320 320 320 319 316 313 308 304 303 302 301
316 317 318 318 320 318 317 317 315 314 317 318 317 317 316 317 318 317 317 317 317 316 316 317 317 318 318 318 317 317 317 318 318 318 317 317 317 317 316 316 316 316 316 316 316 316 316 315 315 315 314 313 313 312 312 312 313 313 313 313 313 313 313 314 317 323 326 326 326 326 326 328 328 328 327 326 325 325 326 326 326 325 324 323 322 320 319 319 319 318 316 310 305 303 302 301 301
317 318 319 320 320 318 317 317 315 314 316 318 318 318 317 316 316 316 315 316 316 317 316 316 317 317 318 318 318 318 317 318 318 318 318 317 317 317 317 317 316 316 315 315 316 315 315 315 315 315 315 314 313 312 312 312 312 313 313 313 313 313 314 314 317 322 326 326 325 325 325 327 328 327 327 326 325 324 324 325 325 324 323 323 321 319 318 318 318 317 315 308 303 303 302 301 300
318 318 318 320 322 319 316 316 316 315 316 319 320 319 317 317 318 317 316 316 316 317 317 317 317 317 318 318 318 318 318 318 319 318 318 317 317 317 317 317 316 316 316 315 315 315 315 315 315 315 315 314 313 312 312 312 312 312 312 312 313 313 315 316 316 319 323 324 324 324 325 327 327 327 326 326 324 322 322 323 323 322 322 321 320 320 318 318 318 316 311 305 302 302 301 300 299
320 321 319 319 321 320 318 318 318 316 318 321 321 321 322 321 322 323 320 318 318 318 318 318 318 318 318 319 318 319 319 319 319 319 318 318 317 317 316 316 316 315 315 315 315 315 315 315 315 314 314 314 313 312 312 312 312 312 312 312 313 314 316 317 317 318 320 323 324 325 326 326 326 326 326 325 323 321 321 321 321 321 320 320 319 319 318 318 318 313 307 303 302 302 301 300 299
318 322 323 321 320 320 320 321 321 317 318 321 320 322 326 324 322 323 320 320 321 320 319 319 319 318 318 319 318 318 318 319 320 319 319 318 317 317 316 316 315 315 314 314 314 314 314 314 314 314 313 313 312 312 311 311 311 312 312 312 312 315 316 318 320 321 322 324 326 325 325 325 325 326 325 324 321 320 320 320 320 320 319 319 318 318 318 317 314 309 304 302 301 302 301 300 299
314 321 324 324 323 322 320 321 321 318 318 321 321 320 322 318 316 319 317 318 322 322 320 318 318 319 319 319 319 318 318 318 319 319 318 318 317 316 316 315 315 315 314 314 314 314 314 314 314 314 313 313 312 312 311 311 311 311 312 312 312 315 317 318 320 322 324 326 326 325 324 324 324 325 325 322 320 320 319 319 319 319 319 319 318 318 317 314 309 304 302 301 301 301 300 299 299
318 323 324 323 322 322 321 320 320 320 321 323 322 320 321 319 317 318 317 316 320 322 322 320 318 319 320 320 320 319 319 318 318 318 317 317 317 316 316 315 315 315 314 314 314 314 314 314 314 313 313 313 312 312 311 311 311 311 312 312 313 316 319 319 320 322 324 325 325 325 324 323 324 324 323 321 320 320 319 318 319 319 319 319 318 317 315 310 306 303 301 301 301 300 299 299 298
322 323 323 323 322 322 322 321 320 322 322 323 324 322 322 322 319 320 320 317 318 321 321 319 318 320 321 320 320 319 318 318 317 316 316 316 316 315 315 315 315 315 314 315 315 314 314 314 314 313 313 313 312 312 311 311 311 311 312 313 314 317 320 321 322 322 324 325 325 325 324 323 323 323 321 320 319 319 319 319 319 319 319 318 316 315 311 307 304 302 301 301 300 299 299 298 298
320 321 323 324 323 322 321 320 322 322 320 322 326 324 319 318 319 321 320 318 320 322 320 319 319 320 320 319 319 318 317 317 316 316 315 315 315 315 315 315 315 315 315 316 315 315 315 315 314 314 313 313 312 312 311 310 311 312 313 313 314 317 320 322 322 322 323 324 324 324 323 322 322 322 320 320 320 319 319 319 319 318 317 317 316 312 307 305 303 301 300 300 300 299 298 298 297
318 321 324 323 322 322 321 321 321 320 321 323 326 324 317 315 321 324 320 320 322 319 318 322 321 320 319 318 317 318 317 317 316 316 315 315 316 315 315 316 315 316 316 316 316 316 315 315 314 314 314 313 312 311 311 310 311 312 313 313 315 318 321 321 321 321 322 323 323 323 322 322 322 322 320 320 319 319 319 319 319 318 316 316 316 311 304 303 302 301 300 300 299 299 298 298 297
320 323 322 320 321 323 321 321 321 320 322 322 323 325 321 317 321 323 320 319 321 319 319 324 323 320 319 318 317 317 317 317 317 316 316 316 316 316 316 317 316 316 316 316 316 316 315 315 314 314 314 314 313 311 311 310 310 312 312 314 316 318 320 320 319 319 320 321 322 323 322 321 321 321 320 319 319 319 319 318 317 316 315 316 315 310 302 301 301 300 300 300 299 298 299 298 297
323 322 320 319 319 322 322 323 325 324 321 320 320 323 321 318 318 321 320 319 320 320 319 321 322 321 320 319 318 318 317 317 318 317 317 317 317 317 317 317 317 316 316 316 316 316 316 315 314 314 314 314 313 312 311 310 310 311 312 314 315 317 318 318 318 319 320 321 321 322 322 321 321 320 320 319 318 318 318 317 316 316 315 316 314 307 301 300 300 300 300 299 298 298 298 297 297
322 321 322 322 318 319 321 322 325 324 320 320 320 319 320 319 317 319 319 317 319 319 318 319 319 319 320 319 318 318 317 317 318 317 317 317 317 317 317 317 316 316 316 316 316 316 315 315 314 314 314 314 313 312 311 310 310 310 312 314 315 315 315 316 318 320 321 321 321 321 322 321 321 320 319 318 318 317 316 316 316 316 316 316 311 304 300 300 300 299 299 299 298 298 297 296 296
319 319 320 322 320 317 318 319 322 323 320 318 318 319 322 321 318 320 319 317 318 318 318 318 318 318 319 319 319 318 317 317 317 317 317 317 317 317 317 316 316 316 316 316 316 316 315 315 315 314 314 314 313 313 311 310 310 310 312 314 315 315 315 317 319 321 321 321 321 321 321 321 321 320 319 318 317 316 316 316 316 315 315 314 307 301 299 299 299 299 299 298 298 297 296 296 296
318 318 319 322 321 318 318 318 319 320 319 320 321 322 323 321 319 318 317 316 316 317 318 318 317 319 318 318 318 318 318 317 316 317 317 317 317 317 317 317 317 316 316 316 316 316 315 315 315 314 314 314 313 313 311 310 310 310 311 313 316 316 317 318 320 321 321 321 321 321 321 321 320 319 318 317 316 315 315 316 315 314 314 310 303 299 299 299 299 299 298 298 297 297 296 295 295
319 321 322 323 322 319 319 318 317 317 317 319 321 320 318 317 317 318 316 315 315 316 317 317 317 318 317 316 316 317 318 317 317 317 316 317 317 317 317 317 317 316 316 316 316 315 315 315 315 314 314 314 314 313 311 310 310 310 310 313 315 316 316 319 320 320 320 320 320 320 320 320 319 317 316 316 316 315 315 316 314 312 309 304 300 299 299 298 298 298 298 297 297 296 296 295 295
322 323 321 320 320 320 318 317 318 319 317 318 318 315 314 314 316 321 320 316 317 317 316 315 316 316 316 316 315 316 318 318 317 318 316 316 316 316 316 316 316 316 316 316 316 315 315 315 316 315 315 314 314 313 312 311 310 310 310 312 314 314 314 318 319 318 318 319 319 319 319 319 318 316 315 315 316 315 315 315 312 307 303 300 298 298 298 298 298 298 297 297 296 296 295 295 295
318 320 317 317 321 321 319 316 317 319 317 318 318 315 314 314 314 318 318 319 320 319 317 317 317 316 316 316 316 316 318 318 318 317 317 316 316 316 316 315 315 316 316 316 316 316 316 316 316 316 315 315 314 313 312 311 310 310 310 311 312 312 313 316 317 316 317 318 319 319 319 319 317 315 315 315 316 315 315 314 310 303 300 299 298 298 297 297 297 297 297 296 296 295 295 295 295
316 317 317 319 320 321 321 318 317 318 317 316 317 315 315 315 316 316 317 318 319 319 320 320 316 315 316 316 316 317 318 319 318 318 317 316 316 316 316 315 315 316 316 316 316 316 316 316 316 316 316 315 315 314 313 312 311 310 310 311 312 312 312 315 316 315 316 317 319 319 318 318 316 315 314 314 315 315 315 313 308 300 298 298 297 297 297 297 297 296 296 295 295 295 294 295 295
315 316 319 320 318 317 320 320 318 319 318 316 317 316 315 316 318 319 318 318 319 320 324 322 316 316 317 317 318 319 319 319 319 318 317 317 316 316 316 316 315 315 316 316 317 317 317 316 316 316 316 315 315 315 314 312 311 310 310 311 311 312 313 315 315 315 315 317 318 319 318 317 315 314 314 313 314 314 315 313 306 299 298 297 297 297 296 296 296 296 295 295 294 294 294 295 295
315 314 316 318 318 317 319 319 318 319 319 318 318 317 316 316 319 318 317 319 321 321 322 321 318 318 319 320 320 320 319 318 318 317 317 317 317 316 316 316 316 316 316 317 317 317 317 316 317 317 316 316 315 315 314 313 312 311 310 310 311 311 313 315 315 315 315 316 318 318 318 316 315 314 314 313 312 313 314 313 307 300 297 297 296 296 296 296 296 295 295 294 294 294 295 295 295
Wind_Speed
8 9 9 8 7 3 4 5 3 3 2 4 4 2 2 3 3 5 5 4 4 6 8 8 8 8 6 2 7 16 16 8 3 1 4 11 15 14 14 11 11 11 10 11 10 10 9 8 10 11 12 11 10 9 8 7 7 7 8 9 9 11 12 13 13 14 15 16 16 16 15 14 14 13 12 12 12 12 12 13 14 14 15 15 17 17 14 13 13 14 16 17 18 19 20 20 21
9 10 9 5 5 3 5 7 3 2 3 5 4 4 4 2 2 5 6 5 6 7 8 9 8 8 7 4 7 14 17 14 11 11 14 18 18 16 16 13 10 10 10 11 10 10 10 9 10 11 12 11 10 9 8 7 7 7 7 8 8 10 11 11 12 13 14 15 16 16 16 15 14 13 12 12 12 12 11 13 13 15 17 15 16 17 13 12 13 16 18 19 19 20 21 22 23
10 9 7 3 6 7 7 3 3 2 5 4 3 3 4 3 4 8 9 9 11 10 9 8 8 7 7 6 8 10 10 13 16 17 17 15 16 17 14 11 10 10 9 10 11 10 11 10 9 10 12 11 10 9 8 7 7 7 6 7 7 9 9 10 11 12 13 14 15 16 16 15 15 14 12 11 11 11 11 12 14 15 15 15 16 15 13 13 14 18 20 21 21 21 23 23 24
10 8 6 2 7 7 5 2 3 2 4 4 4 3 3 6 7 9 10 12 11 9 7 6 5 6 8 6 8 10 11 11 13 16 17 11 11 16 15 12 11 9 9 9 9 10 11 10 9 9 11 11 10 9 8 7 7 6 5 6 6 8 8 8 10 11 12 13 15 15 15 15 15 14 13 11 11 11 12 13 14 15 16 18 18 15 16 16 16 20 21 22 21 22 23 24 25
8 6 4 3 5 3 2 2 1 4 3 1 4 3 4 9 8 8 10 11 9 7 5 4 3 5 8 7 6 7 10 12 11 14 17 14 10 15 18 16 12 10 10 8 8 9 10 10 9 9 10 11 9 8 8 7 7 5 5 6 6 6 7 7 8 10 11 12 14 15 15 14 15 14 13 11 11 11 12 14 14 15 18 19 16 14 16 15 16 19 21 22 21 22 23 24 26
6 3 3 4 7 4 3 2 2 5 3 2 5 4 7 9 9 11 11 10 8 6 5 4 3 6 8 7 8 7 9 10 11 13 16 17 11 16 20 17 12 10 10 9 9 9 9 9 8 8 8 10 10 9 8 7 7 5 5 5 5 5 6 7 7 9 11 12 13 14 14 14 15 15 14 12 10 11 11 13 12 17 19 16 16 14 12 13 16 19 20 21 21 23 24 25 26
6 1 3 5 6 4 2 0 4 5 4 5 6 5 7 10 13 12 10 9 5 5 4 4 3 5 7 6 9 8 8 10 11 11 13 14 11 18 20 15 12 10 11 10 9 9 10 9 9 8 7 9 10 10 8 8 7 6 5 5 4 4 5 6 7 8 9 11 12 13 14 14 14 15 14 13 11 10 11 11 11 15 17 15 15 12 11 14 17 18 19 20 21 24 25 25 26
5 2 4 3 2 3 1 3 6 4 2 5 6 6 11 13 15 11 8 8 4 5 4 4 3 1 5 7 8 5 6 8 9 9 10 12 14 20 18 11 12 11 10 9 8 9 10 10 9 8 7 7 9 9 9 8 8 7 6 5 3 3 4 5 6 7 8 10 11 12 13 13 14 15 15 13 11 10 10 10 11 13 15 14 13 12 14 16 17 18 18 19 22 23 24 25 26
2 4 4 1 2 2 2 5 5 4 4 4 6 9 14 13 13 10 6 7 6 8 8 6 2 1 7 11 12 6 5 5 6 8 10 13 16 20 17 9 11 11 10 9 9 9 9 10 9 8 8 7 7 7 8 8 8 8 7 4 3 3 3 4 5 5 7 8 10 11 12 12 12 14 14 14 12 10 9 9 10 12 13 13 12 14 16 17 17 17 18 20 22 23 23 24 25
5 6 3 1 3 1 3 4 4 4 5 5 6 9 11 9 9 9 7 7 8 9 8 6 3 3 7 12 13 6 4 6 6 8 8 12 16 20 21 12 9 10 10 9 9 8 9 10 9 8 8 6 6 6 7 7 7 8 8 5 4 3 2 3 3 4 5 7 9 10 11 11 11 12 13 13 12 10 9 9 9 11 11 12 13 15 17 17 17 17 18 20 21 21 22 23 24
6 7 3 3 3 2 4 5 4 4 5 5 7 8 8 7 5 6 8 8 7 8 8 6 3 3 6 11 11 7 7 8 7 9 8 12 19 22 23 17 12 11 11 10 9 8 9 10 8 8 8 7 6 6 6 6 6 8 8 6 4 3 1 2 2 3 4 6 7 8 9 10 10 11 12 13 12 11 9 8 8 9 10 11 13 15 17 18 17 17 19 20 20 20 21 23 23
3 5 3 2 3 2 4 5 5 5 5 4 5 8 8 7 5 4 6 8 7 8 8 4 3 4 4 8 8 8 9 10 10 9 8 13 20 22 22 20 17 15 13 12 10 9 10 10 9 9 9 8 7 6 6 5 5 7 8 7 5 3 2 1 1 2 3 5 6 7 9 8 9 10 11 12 12 11 10 9 8 9 11 12 14 15 16 17 17 17 18 19 19 20 20 22 22
3 4 2 2 3 3 3 4 6 5 4 4 6 9 9 7 6 5 5 8 7 6 8 5 3 2 3 9 8 10 11 12 11 9 9 12 15 19 21 21 19 17 16 14 12 11 11 11 10 10 10 9 8 7 7 7 6 7 7 7 6 4 3 2 1 1 2 4 4 6 8 7 8 9 10 11 12 12 11 11 10 10 12 13 14 15 16 17 17 17 18 18 19 19 20 21 20
4 5 1 1 2 2 2 4 5 5 3 5 11 12 10 7 5 5 5 6 5 5 9 7 3 2 4 8 8 12 13 13 12 11 11 10 11 15 18 19 20 18 17 16 15 13 12 11 11 12 11 10 10 9 9 8 7 7 7 8 8 6 5 4 2 1 1 2 3 4 6 6 7 8 9 10 11 12 12 12 12 12 13 13 14 15 16 16 16 16 17 17 18 19 19 19 17
3 6 2 2 1 2 2 3 3 3 3 5 12 15 10 5 3 3 2 4 5 8 10 5 3 1 1 3 8 14 13 11 13 13 12 11 11 13 13 17 20 19 18 18 17 16 15 13 12 12 11 11 12 10 10 10 8 8 8 8 8 7 6 5 4 3 2 2 2 3 4 4 5 6 7 8 9 11 12 12 13 14 14 14 15 15 16 16 16 16 16 16 17 17 17 17 15
1 4 1 2 0 1 0 2 1 1 4 5 12 16 9 4 6 2 3 5 6 8 7 3 4 2 2 5 12 12 9 10 13 13 13 12 12 13 12 13 18 19 18 17 17 17 17 15 14 12 11 11 11 10 10 10 10 9 8 8 9 8 7 6 5 4 4 3 3 3 3 3 3 4 5 7 8 9 11 12 13 14 14 14 15 15 15 15 15 15 15 15 15 15 15 14 13
1 2 0 2 2 2 2 2 2 3 5 7 13 15 8 4 6 4 1 4 5 7 6 3 5 6 2 6 10 7 7 11 13 12 13 13 13 14 13 12 14 17 18 16 17 18 18 17 17 15 13 13 12 10 10 10 10 10 10 9 9 9 8 7 7 6 5 4 4 4 3 3 2 1 3 5 6 7 9 11 12 13 13 13 13 13 14 14 14 14 13 13 13 13 12 12 11
2 0 1 4 2 2 1 2 4 7 7 7 13 15 9 6 8 6 4 3 3 5 6 6 5 7 6 4 6 6 7 9 12 13 13 13 14 14 15 14 13 15 17 16 17 18 18 18 17 16 15 15 14 12 10 10 11 11 10 10 10 10 9 8 8 7 6 5 5 4 4 4 1 1 1 3 4 5 7 9 9 10 11 11 12 12 12 12 12 12 11 11 10 10 9 10 10
2 1 2 2 2 3 6 9 7 5 8 10 13 14 9 9 12 10 5 6 8 5 6 9 7 8 10 9 7 6 6 7 10 12 13 13 13 14 15 16 14 15 16 17 18 17 18 18 17 16 16 16 15 14 12 11 10 10 11 11 11 11 10 10 9 9 8 6 5 5 6 6 2 3 2 1 2 3 5 7 8 8 9 10 10 11 11 11 11 10 10 9 8 8 8 9 9
2 1 1 1 3 5 11 13 9 7 9 12 11 10 6 9 11 10 6 7 10 9 9 11 11 13 13 12 11 10 8 7 8 10 13 13 13 14 14 14 15 16 16 17 18 17 17 18 18 18 18 17 15 14 14 13 11 10 11 12 12 11 11 12 11 11 9 7 7 6 8 8 5 3 2 1 1 2 4 6 7 7 8 9 9 10 11 10 10 9 9 8 8 7 7 8 9
2 0 2 2 3 4 8 10 8 7 8 10 10 7 5 7 7 9 7 5 6 9 11 13 14 17 15 14 13 12 11 9 9 10 12 14 14 14 14 14 13 14 16 16 17 16 17 18 19 20 19 17 16 15 15 16 14 11 12 13 12 12 12 13 12 11 10 9 9 8 9 10 7 6 4 3 3 4 5 6 7 8 8 9 9 10 10 10 10 9 8 7 7 7 6 7 8
2 2 4 5 6 4 5 7 9 7 7 10 10 6 6 7 5 7 8 4 2 3 6 8 8 11 12 12 11 11 11 11 10 10 11 13 15 14 14 15 12 12 16 16 15 15 16 18 19 21 20 17 16 15 15 17 17 15 13 13 13 12 13 13 13 12 11 10 10 10 12 11 10 9 7 6 6 5 7 7 8 8 8 9 9 10 10 10 9 9 9 8 7 7 6 7 8
1 3 5 6 5 5 4 5 9 7 6 8 7 5 7 7 4 8 11 9 3 4 3 4 2 3 6 7 8 9 10 11 11 11 11 12 14 15 15 15 14 15 18 16 13 13 16 18 20 21 21 19 17 16 16 17 18 18 15 14 14 14 15 14 13 13 12 12 12 12 14 14 12 12 11 10 9 7 8 9 9 9 10 10 10 9 9 9 9 9 9 8 7 7 7 7 8
1 2 4 5 7 8 4 5 7 7 6 5 4 4 4 4 3 5 11 14 8 5 7 5 2 2 4 6 6 7 9 10 10 10 11 12 13 15 16 16 16 19 20 17 15 14 15 18 21 21 21 21 19 18 18 17 18 21 20 17 16 16 17 15 14 14 14 14 14 14 14 15 15 13 13 12 12 10 9 9 10 11 12 12 10 8 8 8 8 8 7 7 6 7 7 8 10
1 4 6 5 7 7 6 6 5 5 4 4 3 1 2 4 2 3 10 15 12 11 13 11 9 6 7 9 8 8 9 10 10 11 12 13 14 15 16 18 19 21 20 19 18 17 15 16 20 21 21 21 21 20 20 18 18 20 22 21 19 18 18 16 15 15 15 15 16 16 14 16 17 15 15 14 14 13 9 8 9 12 13 11 9 9 8 8 8 7 7 7 6 8 9 10 11
2 7 9 7 8 7 7 7 6 5 3 3 2 3 4 4 4 6 14 17 13 12 14 14 13 11 10 11 12 12 12 12 12 13 13 13 16 17 18 20 22 22 21 19 19 18 16 16 18 21 22 22 22 22 21 20 19 20 21 22 20 19 20 18 16 16 16 17 17 16 15 17 18 17 16 16 17 16 11 10 11 13 11 8 9 12 10 7 7 8 8 8 7 9 11 11 12
7 11 11 10 9 6 6 6 6 5 3 3 0 3 4 5 3 4 9 12 15 15 14 15 14 14 14 14 15 14 14 15 15 15 15 16 18 19 21 22 23 23 21 20 19 19 18 18 18 19 21 22 23 22 22 21 20 21 21 21 20 21 23 22 19 18 18 19 18 17 15 16 18 18 18 18 20 17 13 13 15 13 10 7 9 12 10 8 9 10 10 9 8 8 11 13 15
9 13 11 8 8 6 4 6 7 4 3 2 2 5 3 4 3 9 9 7 13 16 14 16 15 14 15 15 16 16 17 17 16 18 18 19 19 19 21 21 22 22 21 21 21 20 19 19 18 18 20 22 22 22 22 22 21 22 24 23 22 25 26 24 22 21 22 22 20 19 17 17 18 20 22 22 20 17 13 15 17 14 10 8 9 12 10 8 10 11 11 11 10 9 12 15 16
9 9 6 6 5 4 6 6 6 5 2 1 2 4 6 6 9 17 14 10 10 12 12 13 12 11 12 14 16 17 18 18 19 21 20 19 18 19 20 20 20 21 22 22 22 21 20 20 19 19 20 21 21 20 21 21 21 23 26 26 24 25 29 29 25 22 25 26 23 22 19 19 20 20 23 23 19 15 14 17 17 14 12 12 13 14 12 9 10 12 12 13 12 10 12 17 17
7 4 1 5 3 3 7 7 6 4 3 1 2 2 5 7 16 17 13 15 12 11 11 11 11 10 12 14 16 18 18 20 21 21 20 20 20 20 20 20 20 21 22 23 23 22 21 20 21 21 21 20 20 19 20 21 21 23 26 26 25 23 25 31 29 25 27 27 25 24 21 19 19 18 20 21 18 16 16 19 19 15 15 16 16 16 14 11 10 11 14 15 13 9 13 17 18
3 1 1 3 3 2 4 6 7 4 3 4 3 1 6 3 10 12 12 15 13 12 13 11 12 12 13 15 17 18 19 20 20 20 20 20 21 21 20 21 21 22 23 24 23 23 22 21 21 22 21 21 21 21 22 22 24 25 25 25 25 23 21 26 30 30 29 27 24 24 23 21 20 19 19 20 20 18 17 20 20 17 16 19 19 17 16 12 11 12 14 15 14 11 14 18 18
2 2 1 3 3 2 2 3 6 3 3 6 4 2 7 2 7 11 11 12 11 12 12 12 13 13 14 16 17 18 19 20 20 20 20 20 21 21 21 22 22 22 23 23 23 23 22 22 22 23 23 23 23 23 23 23 25 26 25 25 25 25 24 24 28 32 32 30 26 24 24 22 21 21 22 21 19 18 18 20 20 18 18 21 20 18 17 13 12 14 14 13 13 13 16 18 19
2 2 2 3 3 3 3 0 2 3 3 5 5 2 5 1 7 10 9 11 11 11 11 12 14 14 15 17 18 18 18 19 20 21 21 21 21 22 22 22 22 23 23 23 23 22 22 22 22 23 23 24 24 24 23 23 25 26 25 24 24 25 26 25 26 29 32 32 29 27 24 21 22 24 25 23 19 17 18 19 19 18 20 23 21 19 17 14 13 15 16 14 12 13 16 18 19
3 3 2 2 2 3 3 0 1 3 1 3 5 5 6 6 6 7 7 10 12 13 14 14 14 15 16 18 19 19 19 20 21 22 22 21 21 21 22 22 23 23 23 23 23 23 23 23 23 23 23 25 26 25 23 23 25 26 24 23 23 25 25 25 25 26 30 33 32 31 27 23 23 24 23 21 19 18 19 18 19 20 23 24 23 21 18 15 14 15 16 16 13 13 16 18 17
3 4 3 2 2 2 2 2 2 3 2 3 4 5 9 10 11 14 14 13 15 16 16 18 19 19 19 20 21 22 22 23 23 22 22 22 21 20 22 23 23 24 24 24 23 24 24 24 23 23 24 25 26 25 24 24 25 25 24 23 23 24 24 24 24 24 27 29 29 29 27 23 21 20 20 20 19 20 18 18 20 22 24 26 26 24 21 18 17 17 16 15 15 16 16 17 17
2 3 1 1 1 1 2 4 1 1 2 4 6 7 9 9 10 14 17 16 18 20 20 22 23 24 23 22 23 23 24 25 25 23 22 22 22 21 22 23 24 24 24 24 24 24 25 24 23 24 24 25 25 25 24 25 26 25 24 23 23 23 24 23 22 21 21 22 23 25 24 21 20 20 20 20 20 19 18 19 22 23 26 28 28 26 23 21 20 19 17 16 17 19 18 16 15
3 2 2 2 2 2 3 4 0 2 0 5 7 7 9 9 8 10 16 16 16 18 19 23 25 25 25 23 24 25 26 26 25 24 24 22 22 22 22 24 24 24 24 24 24 25 25 24 25 25 25 25 24 24 24 25 26 25 24 23 23 22 23 23 21 20 19 20 22 23 22 20 21 21 20 21 20 19 19 21 23 24 26 27 26 24 22 21 20 19 18 17 17 20 20 18 16
3 2 2 2 0 2 3 3 1 2 2 4 6 7 10 10 7 10 15 13 15 20 20 23 26 25 24 23 25 26 25 24 23 24 25 23 24 23 24 25 25 25 24 24 26 26 26 26 26 26 25 26 24 23 24 25 25 24 23 22 22 22 22 22 22 22 22 21 21 22 21 21 22 22 21 21 20 19 20 20 21 21 22 23 23 22 21 21 21 19 18 18 19 19 19 18 17
3 1 2 1 1 2 4 3 1 1 1 4 6 6 10 12 10 12 18 17 20 26 24 25 26 22 21 22 23 24 24 24 23 25 26 25 25 25 26 27 28 28 27 28 28 28 28 28 28 27 27 26 25 24 25 25 25 24 23 23 21 21 21 22 24 25 25 23 22 21 21 21 22 22 21 20 20 19 19 20 20 20 21 23 24 23 22 22 21 19 18 19 22 21 18 18 17
1 1 1 1 1 2 1 1 2 3 2 2 6 5 9 12 10 11 19 23 25 27 26 27 27 22 22 21 19 19 21 24 26 25 25 24 25 26 27 29 29 30 30 30 30 30 30 30 29 29 29 27 26 26 26 25 25 24 24 23 21 20 20 22 24 26 27 25 23 21 21 22 23 22 21 21 21 20 19 20 20 20 21 23 24 23 23 24 22 20 20 20 22 22 21 20 19
3 4 2 2 1 3 2 1 2 3 1 3 5 6 6 7 7 7 9 12 17 21 22 24 26 25 24 22 20 19 18 21 24 25 25 24 24 25 25 27 28 29 30 30 30 30 30 30 30 30 30 28 27 26 26 25 25 25 24 23 22 21 21 22 23 26 28 26 23 22 22 22 21 22 22 23 23 21 20 20 19 20 21 23 24 23 24 24 23 22 22 21 21 19 18 20 20
3 3 1 2 3 5 3 3 3 1 2 3 2 4 5 4 4 5 4 2 7 11 13 19 24 22 20 20 21 21 18 18 19 20 22 22 23 23 23 24 25 26 27 28 29 29 29 30 30 30 30 28 27 26 26 25 25 26 25 24 24 24 24 24 24 25 26 25 24 24 23 22 21 22 23 24 23 22 20 19 20 21 21 22 24 25 25 25 24 24 22 21 20 17 15 18 19
2 2 4 4 5 6 3 4 3 1 3 4 3 1 5 6 6 8 8 7 7 7 8 17 22 17 16 18 17 15 15 16 17 18 19 20 21 22 22 22 21 22 23 24 25 26 26 28 28 29 28 27 27 26 25 25 26 26 25 24 24 24 24 24 23 23 24 25 26 25 23 23 23 23 24 24 23 22 21 20 21 20 20 22 25 27 27 26 25 24 23 21 20 19 17 16 17
2 3 4 2 6 5 1 3 1 2 3 3 4 4 5 6 6 9 11 11 9 7 7 14 16 12 11 12 10 9 10 12 14 17 20 20 20 20 20 19 17 17 19 20 21 21 23 24 25 26 26 26 27 25 25 26 26 26 25 25 24 23 22 22 21 22 26 28 28 27 25 25 25 25 26 25 24 23 23 22 22 20 19 23 26 27 27 27 26 25 24 22 21 19 18 16 15
2 3 2 3 6 3 2 2 1 2 4 3 3 3 3 6 5 6 9 9 7 8 10 11 8 7 10 10 8 9 10 11 12 14 18 18 17 17 17 16 15 15 17 17 17 18 19 20 22 23 24 25 25 24 25 26 27 26 25 25 25 23 23 23 22 23 28 30 29 27 26 27 27 27 27 27 26 25 23 23 23 21 21 23 25 26 27 27 27 26 25 24 23 20 19 17 16
4 4 2 5 4 4 3 2 1 3 3 3 5 5 3 6 4 4 5 6 7 9 9 5 7 12 11 9 9 10 11 12 12 12 14 15 14 13 13 13 13 14 14 14 14 15 16 18 19 21 23 24 23 23 25 26 27 26 26 26 25 25 26 26 24 23 27 29 26 25 27 29 29 29 29 28 27 26 24 24 25 24 24 24 24 26 27 27 27 27 26 25 23 21 20 19 17
5 4 3 4 2 4 3 1 4 2 4 3 5 7 4 5 4 2 4 5 7 7 4 3 8 11 9 7 8 8 7 9 10 11 12 13 12 11 11 11 11 11 11 11 12 13 15 16 18 20 22 23 22 23 26 27 27 27 27 27 27 27 27 27 27 26 27 28 26 26 29 30 30 30 29 29 28 27 26 26 27 27 25 24 25 26 28 29 28 28 27 26 24 22 22 21 20
3 2 3 3 2 4 3 2 4 0 4 2 3 2 3 5 4 1 2 4 4 4 3 6 8 8 7 5 5 4 4 6 7 8 10 11 11 11 10 9 9 9 9 9 10 12 14 16 17 19 22 23 22 23 26 27 28 28 28 27 28 29 28 29 29 27 27 27 27 28 30 30 31 31 30 29 28 28 27 28 29 29 28 26 27 28 29 30 29 29 28 26 25 24 22 21 21
1 2 5 4 1 2 1 1 1 3 4 3 5 5 2 7 5 3 5 5 4 5 4 7 10 8 6 6 6 6 5 5 6 7 8 9 9 10 9 9 8 7 7 9 10 11 13 15 17 19 22 23 22 23 25 26 28 29 28 28 28 29 30 30 28 27 27 27 28 30 30 30 31 31 31 29 28 28 29 30 31 31 29 28 28 29 31 31 30 30 28 27 26 25 23 22 21
3 4 6 4 3 1 3 3 2 4 3 4 5 3 3 5 4 6 8 6 7 8 5 3 4 5 7 8 9 9 8 8 8 8 8 8 8 8 9 8 7 6 8 9 11 12 13 15 17 19 21 22 21 22 24 26 28 29 28 29 29 30 30 30 28 27 28 28 29 30 29 29 30 30 30 28 28 29 30 31 32 32 31 30 30 31 32 32 31 30 29 28 28 26 24 23 22
6 4 4 4 4 3 3 3 2 3 1 3 4 1 3 2 2 5 3 1 3 5 7 7 9 9 8 8 11 13 13 12 12 11 9 9 9 8 9 9 8 8 9 11 11 12 13 15 17 18 19 20 20 22 24 26 29 29 29 30 31 31 30 28 27 28 28 28 29 30 30 29 30 30 29 28 28 29 31 33 34 33 33 33 33 33 34 33 32 32 31 30 29 28 26 25 23
4 2 1 4 4 2 1 2 2 2 1 3 2 3 5 4 7 9 6 5 6 7 12 14 15 13 9 12 17 18 18 17 16 15 13 12 12 11 11 11 11 11 12 12 11 12 13 14 15 17 18 18 19 21 23 26 29 29 29 31 32 32 29 27 27 27 27 27 28 29 31 31 30 29 29 28 28 29 32 34 34 35 36 36 35 36 35 34 34 33 32 31 30 29 27 26 24
2 2 3 4 1 3 3 1 1 4 3 4 3 6 6 3 9 11 10 12 10 9 12 14 16 16 15 20 23 21 20 20 19 17 16 16 16 16 16 16 15 14 13 12 12 12 12 12 15 16 17 18 18 20 23 25 28 30 30 31 32 31 30 29 28 29 28 27 26 28 31 33 30 28 28 28 29 29 31 34 34 36 37 37 37 37 36 36 35 34 33 32 31 30 28 26 25
3 3 3 1 3 3 3 1 2 1 5 4 4 8 7 2 6 4 1 5 8 8 10 13 17 19 20 25 25 19 18 18 17 17 17 17 16 17 19 19 18 16 14 12 12 12 11 11 14 16 17 18 18 19 22 24 28 30 30 31 32 31 32 32 31 30 29 28 29 29 32 33 29 27 27 28 29 29 31 34 36 37 38 38 39 38 37 37 36 35 34 33 32 30 28 27 25
4 2 2 2 1 1 2 2 2 3 4 4 4 7 6 6 8 4 3 3 6 8 10 10 13 18 22 24 21 16 15 15 16 18 19 17 15 16 18 19 18 15 12 11 11 11 10 10 12 14 16 17 18 18 21 24 27 30 30 31 31 31 32 33 33 33 31 31 32 32 34 33 29 27 27 28 30 29 31 36 38 39 40 40 40 39 38 38 37 36 35 34 32 30 28 27 26
3 3 3 2 2 3 4 3 3 3 4 5 5 4 5 7 6 5 7 9 8 9 8 8 11 16 19 18 16 15 14 15 15 16 17 16 15 15 15 17 17 15 12 11 10 9 9 10 11 12 14 15 18 19 20 23 27 29 30 31 32 31 31 34 35 35 33 33 34 34 35 33 29 28 27 27 29 30 32 37 40 41 41 41 41 40 39 39 38 37 36 34 32 30 28 27 26
2 1 2 2 1 2 0 1 2 4 3 3 4 5 8 6 4 6 7 5 5 8 9 8 11 13 12 11 11 11 10 11 12 13 13 14 15 15 14 16 18 17 15 12 9 9 9 10 10 11 12 14 17 19 20 23 26 28 30 32 33 32 32 35 37 36 34 34 34 35 35 33 30 29 27 27 29 31 34 38 41 42 42 42 41 41 40 39 38 37 36 33 31 30 29 28 27
7 6 7 7 5 4 1 4 2 2 2 3 2 5 11 6 4 3 2 3 3 5 7 7 7 6 6 6 7 8 8 9 9 12 15 16 16 16 16 17 17 17 16 13 10 10 11 10 9 10 12 13 15 18 20 22 25 27 30 32 33 33 33 36 37 37 35 34 35 36 35 34 32 30 28 27 29 31 34 38 42 43 43 42 41 41 41 40 39 38 36 34 32 30 30 29 28
Wind_Direction
187 184 182 189 201 234 278 252 267 228 185 82 97 103 80 58 101 118 109 118 94 56 56 68 57 41 31 32 84 67 46 42 71 56 129 143 150 157 146 144 149 147 149 142 148 147 147 149 139 138 130 127 127 121 119 109 102 99 90 79 64 62 59 57 55 53 49 45 46 44 46 48 52 56 60 65 68 73 75 78 79 80 82 84 87 83 77 78 84 86 84 82 80 81 82 83 82
186 190 188 203 218 242 264 200 206 256 131 83 74 80 105 127 139 108 91 82 83 90 81 77 73 50 49 78 85 67 53 58 84 102 127 148 157 165 152 142 142 149 155 146 152 151 150 151 143 140 132 131 131 126 125 117 107 103 90 77 65 63 62 59 55 51 48 45 45 42 44 45 48 51 56 63 66 72 73 75 78 80 83 88 95 98 95 86 86 87 86 84 83 84 85 84 83
185 193 179 209 254 241 266 204 209 253 124 99 77 101 146 137 94 80 77 83 91 99 92 91 84 45 29 46 62 77 78 71 86 104 123 147 161 161 145 139 144 152 161 153 154 153 154 152 147 142 134 135 133 130 129 124 113 107 92 78 68 64 62 61 58 52 47 46 45 42 42 44 45 46 51 58 62 67 70 74 79 82 86 85 84 87 89 85 86 89 89 87 86 89 88 86 87
184 196 177 214 274 241 253 232 240 310 92 109 108 167 170 102 90 82 85 91 98 103 95 100 85 44 32 36 53 83 98 83 94 109 118 139 164 154 142 151 154 158 167 157 156 154 155 152 149 148 138 136 136 133 130 128 119 109 98 85 71 62 59 58 58 53 48 47 46 43 42 44 44 44 47 52 58 61 65 76 81 84 84 79 76 74 76 82 87 89 90 89 90 92 91 89 88
183 203 195 198 266 256 271 260 314 35 46 85 116 168 121 93 102 100 97 96 99 95 88 94 81 78 59 43 42 79 108 96 110 127 135 148 170 163 149 153 155 165 170 157 164 160 157 154 151 153 144 138 138 135 130 129 123 115 110 97 73 59 57 58 57 53 48 47 47 44 43 44 44 44 48 51 59 61 67 80 87 89 87 86 86 83 84 92 91 90 91 92 93 93 92 90 88
175 229 263 257 264 282 306 275 59 75 3 343 113 121 101 105 115 113 113 103 92 94 89 70 66 106 87 65 71 97 131 118 134 148 157 161 169 166 149 145 152 166 170 165 168 167 165 157 153 155 147 142 139 136 132 128 125 122 122 108 78 61 59 62 60 55 49 50 49 45 43 43 44 44 48 53 63 69 74 83 91 94 95 98 95 93 101 103 94 92 93 95 97 95 93 91 88
164 291 261 258 265 257 270 87 67 81 342 358 100 115 102 113 122 124 129 115 106 119 97 73 86 108 106 111 89 92 140 147 161 155 165 170 155 151 141 138 151 166 174 174 168 168 172 161 158 158 149 147 142 140 137 132 130 134 133 112 83 61 62 64 64 58 51 52 52 48 43 42 43 43 48 53 64 75 82 85 88 98 106 110 108 112 116 105 97 96 96 98 99 97 95 92 89
162 256 246 258 273 213 233 67 57 66 19 17 57 99 112 122 133 140 146 136 151 147 125 122 119 87 113 117 101 109 143 144 171 157 153 157 144 142 134 138 155 167 179 178 173 171 176 169 165 161 152 150 145 145 145 143 141 140 137 120 98 69 63 63 64 60 50 49 53 50 44 41 42 42 46 52 62 76 87 89 84 95 110 119 123 124 114 106 103 100 100 101 98 95 94 92 89
196 267 263 273 264 237 64 85 84 86 96 69 55 86 114 134 145 146 136 125 139 135 128 139 97 97 125 104 107 142 158 132 157 152 144 147 150 143 133 153 166 169 181 181 180 177 181 177 170 164 158 156 149 150 151 153 152 145 140 138 121 89 69 61 62 59 47 44 50 51 44 40 42 43 44 49 59 72 86 92 88 91 104 117 121 116 110 107 105 104 104 101 97 95 93 92 91
268 250 260 306 255 197 105 104 100 102 96 103 100 99 118 141 153 149 134 119 135 121 110 139 99 105 136 111 118 153 167 154 155 154 156 146 152 148 140 158 181 178 187 188 186 184 185 181 175 173 169 169 162 159 157 158 159 154 148 145 137 117 82 64 63 60 52 44 48 51 45 39 41 44 44 47 55 65 78 88 92 93 99 108 111 111 109 107 105 105 103 100 97 95 94 93 92
264 233 241 309 261 186 123 109 100 110 99 103 110 115 130 143 157 153 130 116 133 118 117 164 122 119 145 112 125 156 159 171 174 165 166 146 149 151 146 156 176 184 190 193 193 185 183 184 187 187 181 176 175 174 166 163 167 162 155 151 156 154 114 82 65 57 56 47 45 45 43 41 42 46 46 48 54 61 70 80 91 96 98 101 103 105 105 106 105 106 103 100 98 95 95 94 94
255 230 201 270 282 42 84 106 113 111 110 123 119 131 142 145 166 156 126 120 134 125 130 173 115 143 150 104 134 158 160 181 181 174 168 154 156 156 155 164 172 179 185 187 191 187 185 189 193 198 193 183 181 186 182 178 179 173 163 160 168 177 174 145 71 44 45 46 44 37 39 43 44 48 49 51 57 62 68 74 80 83 88 94 97 101 104 105 105 105 103 101 98 96 95 94 96
254 263 187 240 303 47 63 99 111 114 133 160 133 143 150 159 180 162 149 138 143 138 131 145 123 166 112 104 140 154 171 191 178 180 176 170 173 165 166 171 175 178 181 185 188 188 188 191 194 200 199 191 188 190 193 191 187 183 175 170 175 189 195 191 161 88 28 35 36 29 34 40 44 51 53 53 60 67 71 76 80 81 87 95 99 101 102 102 102 102 101 100 99 97 95 94 96
280 317 348 264 318 59 58 100 129 149 159 143 131 146 158 172 191 152 155 137 122 130 133 149 159 177 126 115 141 160 184 196 178 187 190 188 183 172 173 176 179 181 179 186 189 187 188 188 190 195 197 195 192 194 197 196 191 191 188 181 183 196 202 205 207 202 324 4 11 19 29 33 41 51 55 58 64 72 77 80 85 88 92 97 100 100 99 99 99 99 99 100 99 97 94 94 94
303 337 338 308 1 80 54 97 150 160 123 118 134 151 159 158 166 124 95 87 97 123 131 162 203 150 80 107 156 180 198 191 182 193 196 199 186 177 185 181 183 188 185 188 192 193 193 190 188 189 193 195 193 197 202 198 192 195 198 192 193 202 205 216 224 226 255 303 335 358 21 25 32 47 55 60 68 76 82 85 89 92 96 98 100 101 101 101 100 100 101 100 99 95 93 93 90
273 339 342 314 338 128 197 115 69 104 110 131 146 153 152 145 163 157 47 83 116 136 130 156 191 169 42 114 153 186 204 185 190 199 200 204 194 187 195 191 189 193 196 196 196 200 201 198 197 192 189 191 193 198 204 201 195 198 204 200 203 208 211 222 229 235 255 280 308 326 347 359 11 34 53 62 71 80 86 90 94 96 99 101 102 104 104 103 102 102 103 101 99 96 94 92 88
211 337 11 265 210 135 189 158 121 138 117 135 156 156 146 147 173 199 166 120 132 141 139 159 190 205 208 137 156 178 181 186 199 203 206 208 203 197 199 205 200 197 204 205 202 206 208 208 208 201 194 194 195 198 202 202 200 201 207 207 209 214 216 221 228 237 246 259 284 295 303 324 339 5 50 64 73 85 95 98 99 101 102 103 103 105 104 103 103 103 102 101 99 96 94 90 85
166 274 205 253 206 118 267 75 103 141 139 147 163 167 157 154 178 194 196 177 169 148 166 203 215 217 223 188 170 170 168 190 202 206 214 213 211 207 201 207 209 205 209 211 212 214 214 216 216 210 204 203 199 198 199 200 203 207 211 214 213 217 221 221 228 237 239 249 268 273 280 293 271 145 81 68 79 94 107 110 110 109 108 107 106 106 105 104 104 104 104 102 99 93 89 83 77
190 257 215 289 62 36 19 58 63 89 138 155 162 179 174 155 171 179 194 194 186 184 193 201 209 221 225 219 208 195 184 194 203 212 218 218 219 217 212 210 208 211 215 217 221 223 220 220 221 216 211 210 205 201 202 202 206 211 215 217 216 219 222 224 229 236 241 247 254 257 269 274 234 152 136 82 107 120 127 129 127 123 119 115 114 112 109 107 105 104 101 97 97 94 89 83 74
211 276 149 12 73 51 40 63 61 60 123 152 155 178 164 138 158 172 203 202 183 198 202 189 194 215 225 222 219 216 210 208 209 217 220 223 225 223 224 218 208 212 218 221 226 228 226 224 223 225 222 216 211 208 210 211 209 212 218 219 220 222 223 227 229 231 236 234 234 242 257 263 251 201 184 203 210 175 162 155 150 147 138 129 126 124 118 115 109 102 95 90 90 95 97 93 85
170 211 92 16 7 52 48 63 75 77 111 138 141 160 148 134 152 171 205 221 189 207 211 202 202 212 221 219 217 220 223 225 220 222 224 224 226 227 230 229 218 217 223 225 231 233 231 230 227 231 233 223 213 212 214 214 211 212 220 221 224 228 227 227 224 226 229 223 221 224 238 248 253 248 235 236 238 210 195 183 173 169 159 147 141 137 131 125 117 108 100 95 94 98 97 97 95
101 81 82 34 359 55 70 70 88 90 102 123 134 153 154 151 168 187 208 228 165 151 181 192 198 203 210 212 210 214 222 229 230 229 228 224 224 224 228 234 220 215 231 232 236 241 236 235 230 232 237 224 211 214 217 215 212 210 215 221 226 230 227 226 224 226 227 222 221 217 224 236 245 252 256 253 247 227 212 199 189 184 178 168 157 151 143 132 126 118 111 103 102 108 106 101 102
86 90 80 46 31 86 102 93 94 87 97 116 129 147 150 156 200 210 218 229 184 90 132 161 147 172 192 203 211 219 225 230 233 234 233 229 223 218 218 231 222 214 234 240 240 243 235 234 231 232 235 225 213 215 223 223 217 211 211 217 222 227 225 224 227 227 228 227 225 216 221 236 242 248 258 259 256 247 225 208 201 196 193 187 174 163 149 137 129 120 113 104 102 112 114 113 115
168 117 95 66 73 91 118 133 104 84 87 90 99 125 157 177 213 208 218 228 231 262 270 259 230 188 204 224 229 233 235 232 234 235 234 234 229 222 213 221 228 224 233 241 243 245 238 233 232 232 232 228 219 214 226 234 224 214 214 220 221 225 225 223 228 230 231 230 226 218 221 232 236 244 257 260 259 255 238 218 209 203 205 200 186 173 155 145 135 125 119 115 118 125 123 124 126
281 112 116 98 88 96 112 124 109 86 80 81 106 156 207 200 235 254 235 232 235 252 261 263 248 228 230 240 241 235 235 233 230 230 232 233 230 227 216 214 226 233 235 236 238 247 247 236 231 230 229 231 226 218 225 235 231 219 216 225 228 228 226 223 228 234 236 232 224 220 224 230 231 242 254 256 254 250 241 228 218 215 218 211 196 187 170 153 147 142 135 132 141 142 132 130 132
87 113 124 114 102 111 111 109 101 93 86 91 132 225 209 220 269 273 256 244 236 240 245 253 251 238 236 241 245 243 239 236 234 234 236 234 228 226 222 219 225 235 241 240 239 244 247 238 230 226 226 229 227 221 222 228 234 231 222 224 230 231 226 222 228 235 239 238 228 222 229 232 234 245 252 253 249 240 227 225 230 230 227 215 199 192 178 160 154 144 136 138 148 145 134 133 140
110 112 114 112 115 123 120 119 113 104 99 104 300 279 199 207 246 260 256 237 222 225 230 239 247 246 244 240 242 246 243 242 242 240 239 236 233 230 228 229 231 237 243 244 244 244 243 239 231 225 225 226 227 225 225 226 231 239 238 230 224 225 224 221 228 234 236 237 233 230 233 237 241 247 249 251 246 231 224 237 243 238 225 213 198 189 178 166 156 139 134 142 147 145 136 138 145
124 117 105 113 128 125 138 135 140 148 99 108 324 313 245 171 203 237 229 207 209 216 220 231 242 246 244 241 238 240 241 242 241 241 242 243 242 238 237 238 239 240 242 243 244 245 242 239 234 228 226 227 229 230 232 234 232 238 246 242 228 223 223 224 230 236 235 232 231 232 236 241 246 246 245 246 239 230 241 254 245 232 220 216 199 190 182 164 152 142 141 147 146 145 142 144 149
141 141 117 137 146 152 181 154 158 186 104 79 16 314 258 183 221 242 225 206 200 204 211 222 236 237 233 235 235 236 236 236 239 243 247 250 249 244 243 244 242 241 242 242 243 245 243 239 234 231 230 232 233 233 234 238 237 236 243 247 241 229 224 228 233 235 234 235 236 233 230 236 242 244 242 236 230 236 254 253 237 224 221 221 208 196 187 165 151 148 152 151 144 145 150 150 153
159 190 136 146 167 202 183 148 153 173 112 111 55 325 268 208 223 234 215 209 201 195 206 214 233 241 232 230 233 239 238 236 242 248 250 250 250 247 244 243 240 239 239 240 242 244 243 239 235 234 234 236 236 235 234 234 233 234 239 245 249 242 229 226 227 228 231 237 241 238 232 232 236 239 237 231 233 243 245 240 230 224 224 222 213 201 192 174 155 157 160 152 143 150 158 156 158
156 146 340 170 177 181 161 138 157 165 131 162 110 223 282 268 202 199 192 206 206 209 219 220 229 236 235 233 235 242 245 244 247 250 250 248 249 249 246 243 240 237 236 238 240 242 243 240 237 237 237 237 236 235 235 234 233 236 242 246 251 255 245 231 225 224 230 234 237 239 236 233 236 239 239 238 241 238 231 230 228 230 229 220 212 203 196 182 163 167 168 156 148 159 165 161 162
163 120 280 219 185 154 141 136 162 154 135 178 156 213 271 307 147 172 188 200 206 218 225 223 223 227 233 237 242 246 248 250 250 249 246 243 244 246 245 243 241 238 237 238 239 241 242 241 240 240 239 238 237 237 236 236 238 242 247 250 252 256 256 246 234 228 230 232 234 237 236 236 240 242 244 239 230 224 222 224 225 232 231 219 211 204 196 186 176 173 170 163 159 166 171 167 165
192 178 224 203 187 171 172 320 160 127 115 184 210 254 284 270 161 177 191 204 209 217 229 229 226 227 229 235 245 248 246 247 249 248 246 242 241 242 243 242 240 240 240 241 241 241 242 243 243 244 243 241 240 239 237 236 240 244 245 248 251 253 253 251 243 234 229 231 234 234 235 242 247 246 246 234 216 215 220 219 220 227 228 218 210 203 194 190 187 178 169 167 172 176 175 170 165
189 204 242 190 174 173 168 34 147 157 146 216 215 227 264 269 237 216 207 209 208 213 225 228 227 230 232 235 240 245 244 245 250 251 250 247 243 242 241 239 239 240 241 242 242 243 245 246 247 248 247 246 244 241 238 238 240 243 244 245 246 248 249 248 245 238 232 232 233 233 237 250 253 247 240 225 211 214 218 216 217 222 224 216 208 201 193 188 185 183 176 168 175 182 176 170 168
163 179 217 206 210 235 165 122 173 177 177 237 223 227 248 262 268 263 251 229 213 217 227 231 235 240 242 237 235 239 241 246 252 254 254 253 247 242 239 237 237 238 241 242 243 245 247 248 249 249 249 248 248 245 239 238 240 243 244 242 242 244 246 245 243 239 236 233 232 231 235 244 244 229 218 215 215 215 215 214 216 221 223 215 207 198 189 185 183 186 186 175 174 180 178 173 171
68 141 195 227 154 267 119 107 161 183 154 225 235 240 249 253 261 265 261 245 224 223 230 236 241 245 244 239 235 235 237 246 254 254 254 255 250 242 237 236 236 238 241 244 245 246 249 251 251 250 250 250 249 246 241 238 240 242 242 241 241 242 243 242 236 231 229 224 222 223 226 232 228 213 207 217 222 218 213 212 214 219 221 215 205 193 186 187 186 185 187 187 180 176 178 177 174
14 51 17 352 48 66 99 101 45 341 293 236 238 248 259 258 255 262 266 263 248 235 232 236 240 241 240 238 237 237 239 246 252 252 251 251 249 243 238 236 236 238 241 245 248 248 250 252 252 252 253 253 251 248 244 241 242 243 243 243 242 241 240 238 227 217 215 213 214 217 221 229 224 213 212 220 222 214 209 211 213 216 216 211 201 192 189 188 185 185 187 191 187 177 175 178 178
20 8 19 349 71 105 73 83 147 37 35 264 276 282 274 267 261 265 265 263 257 249 241 242 244 241 239 239 240 240 242 245 244 242 243 243 245 243 240 237 236 240 245 250 251 250 251 252 253 254 254 254 254 249 245 244 244 244 244 244 243 239 237 232 219 210 209 210 214 216 222 228 219 210 213 219 217 204 198 203 206 206 205 202 196 192 191 188 185 190 191 186 184 182 178 178 179
53 347 37 356 230 113 57 45 130 101 119 270 305 311 283 275 266 258 254 247 250 253 249 249 250 246 241 240 241 239 237 237 233 232 235 238 242 242 241 240 240 245 250 252 251 250 250 251 253 254 254 254 253 249 246 244 244 243 243 243 239 235 231 225 216 210 208 209 214 218 223 224 214 210 216 216 208 198 194 195 194 193 194 196 195 193 190 189 190 193 193 186 180 181 183 182 181
184 223 83 247 228 108 63 344 245 202 155 304 309 301 276 275 270 256 251 244 247 255 256 256 255 251 249 245 244 240 233 231 228 228 234 237 240 241 242 244 245 248 250 250 249 249 250 251 253 253 254 254 252 250 246 244 244 243 242 241 237 231 224 219 215 212 211 212 216 216 217 216 212 214 216 208 200 197 197 195 193 194 195 198 201 200 195 191 192 191 189 189 184 180 183 185 183
220 203 204 242 63 79 113 47 261 213 66 349 314 302 277 264 260 263 262 241 237 246 252 256 253 250 251 250 245 240 233 233 231 229 234 239 241 244 247 249 250 250 250 250 250 249 251 252 253 253 254 254 252 250 247 244 243 241 241 238 231 223 217 215 211 207 207 212 214 207 205 208 209 214 210 202 199 197 197 196 197 199 200 203 206 206 201 192 191 190 186 188 189 186 185 185 185
234 201 271 292 63 67 72 36 5 350 331 292 5 341 296 293 284 283 308 257 227 232 238 247 250 247 247 250 248 243 236 236 238 238 239 242 244 246 248 249 250 250 250 251 251 250 251 254 255 255 256 255 253 251 247 243 240 240 239 236 231 223 217 212 204 200 202 205 203 198 199 204 208 212 207 203 202 199 197 198 201 205 207 210 209 205 200 191 187 188 186 186 189 192 192 187 186
281 270 328 338 70 70 40 27 27 1 283 251 137 120 276 298 293 272 272 267 242 217 223 242 247 246 244 246 247 245 242 235 235 241 243 243 245 245 246 247 248 249 250 250 251 252 253 255 257 258 258 257 255 251 246 242 238 237 237 234 231 225 219 211 202 200 200 199 198 198 202 205 207 210 207 205 205 201 200 202 205 209 213 212 206 200 194 189 186 186 186 187 189 192 195 193 190
254 264 306 357 82 87 71 53 88 244 316 282 173 166 261 282 257 240 242 249 242 214 228 248 249 243 230 226 225 231 240 234 226 231 237 241 245 246 246 247 248 247 248 250 251 253 255 257 259 260 260 257 255 250 244 241 238 236 234 231 224 217 215 212 207 205 202 201 202 204 207 207 207 208 205 204 205 204 205 206 205 206 208 207 199 194 192 188 186 187 187 189 192 193 193 195 196
221 258 309 78 89 92 102 62 320 312 1 314 221 177 269 273 245 228 227 229 227 220 234 248 234 186 176 181 197 215 224 231 226 223 232 239 243 246 246 245 245 244 246 250 253 255 257 259 260 260 259 257 255 250 242 238 236 234 230 226 219 211 208 209 212 211 205 202 203 206 208 207 208 208 205 204 205 207 208 206 203 200 200 201 197 193 192 189 188 189 189 190 192 193 192 193 197
197 214 82 77 84 75 75 66 34 14 335 257 204 175 250 280 249 193 197 201 205 222 238 230 147 143 158 176 200 220 223 230 232 221 226 237 240 239 239 237 237 239 245 252 256 258 260 261 259 259 259 258 255 246 238 235 234 230 226 222 216 210 206 207 210 209 205 203 205 212 213 208 207 207 206 205 206 208 207 204 203 200 198 202 203 198 192 191 191 191 191 192 190 190 191 191 193
156 170 87 69 60 60 55 56 73 39 288 258 199 188 201 288 286 164 178 197 198 213 223 137 133 146 166 189 205 223 227 222 223 218 217 224 227 224 225 228 229 234 243 249 254 257 259 260 259 259 259 260 254 240 234 233 231 228 225 220 215 211 208 207 206 205 207 209 213 219 217 209 206 206 206 206 207 208 206 204 204 202 201 205 209 203 195 192 193 193 193 193 190 190 192 190 191
115 147 118 90 10 33 29 8 59 76 253 282 299 275 200 243 274 296 253 248 214 217 201 157 154 162 174 198 215 226 225 209 206 210 212 212 212 209 210 215 217 225 237 245 252 256 257 258 259 259 260 261 253 238 232 232 230 229 225 218 213 210 209 208 207 207 211 216 221 221 215 208 205 205 206 207 209 209 207 206 205 204 205 208 210 205 198 195 194 194 194 193 192 193 193 192 192
56 165 123 105 336 10 356 289 121 224 237 271 316 352 275 242 255 251 255 262 236 237 227 153 145 164 195 220 231 234 230 218 205 203 205 205 204 201 201 205 211 224 241 251 258 261 261 261 261 262 262 262 255 240 233 232 230 229 223 216 213 213 212 211 211 213 218 222 223 219 213 209 208 207 208 210 212 211 211 211 208 207 209 210 211 206 200 197 195 195 195 194 195 196 196 196 197
188 173 138 139 167 187 241 220 208 238 244 297 324 6 267 272 287 249 240 241 223 214 219 167 140 202 232 238 242 243 236 228 219 211 206 204 203 205 208 210 218 241 258 262 265 267 267 265 265 267 267 266 259 245 235 231 231 230 223 217 217 218 215 212 213 219 222 220 218 216 215 214 212 211 213 216 215 215 217 216 211 211 213 212 210 206 201 198 197 197 198 197 198 200 200 201 201
200 192 150 171 176 182 213 182 204 243 251 302 313 321 217 234 285 246 213 242 242 213 223 256 274 258 241 249 255 251 242 236 229 222 216 212 212 219 224 225 234 258 269 268 268 269 270 271 272 274 276 273 264 249 238 232 231 231 225 220 219 220 218 215 218 220 217 213 213 215 217 216 215 215 218 220 219 220 222 218 213 213 214 211 208 204 201 199 198 199 201 201 202 203 203 204 204
220 218 184 232 217 170 136 158 171 140 358 292 244 238 224 215 269 264 244 264 270 238 235 246 255 248 237 254 260 253 249 246 239 232 227 225 226 231 240 244 248 263 272 271 272 273 273 279 284 285 285 282 269 253 241 234 232 232 228 223 221 219 217 217 217 213 209 211 214 218 219 216 215 218 221 222 223 224 223 218 214 212 211 208 206 204 202 201 200 202 203 204 206 206 206 207 208
200 159 202 228 201 98 119 275 41 99 266 266 184 254 280 302 285 266 234 239 241 230 237 240 244 246 247 253 255 253 253 254 252 250 246 242 240 243 250 252 253 263 271 272 277 278 279 292 300 298 295 289 276 259 246 237 233 232 230 226 222 218 215 214 212 208 210 214 217 223 222 215 215 220 222 223 224 225 224 219 214 210 207 206 206 204 203 203 203 204 206 207 208 209 209 210 211
118 160 219 218 25 43 117 233 342 131 252 269 179 238 274 287 275 300 91 218 221 218 231 238 244 246 246 249 252 252 255 258 262 268 265 256 251 252 253 252 254 260 264 268 277 281 287 303 309 308 305 299 287 268 252 241 234 232 232 228 223 220 216 213 214 213 213 216 220 226 222 215 216 221 222 222 223 224 223 218 213 209 207 206 206 205 205 205 205 207 208 210 211 212 211 212 213
105 171 278 103 108 271 143 168 230 197 230 268 240 244 257 227 237 292 353 228 217 213 213 220 233 235 237 245 250 249 252 256 263 270 269 265 265 265 257 250 248 247 249 259 272 279 289 302 306 310 311 306 295 276 257 245 237 233 233 230 226 224 219 215 219 220 217 218 223 225 221 217 218 220 221 221 222 225 223 217 212 209 208 207 207 207 206 206 207 209 210 212 213 213 213 214 215
30 353 338 90 139 187 179 179 192 176 204 254 273 277 256 229 223 244 244 236 222 203 192 205 222 225 232 243 250 250 251 257 266 271 272 274 276 272 260 249 243 237 237 250 263 274 287 292 299 307 308 306 301 286 265 249 240 234 233 231 227 225 221 218 221 223 220 220 224 223 220 218 218 219 220 221 223 225 223 217 213 210 209 209 209 208 208 209 210 211 213 214 214 214 215 216 217
167 282 220 188 143 118 150 270 181 157 185 239 263 276 265 240 195 208 219 228 213 182 175 201 218 223 230 237 243 245 250 260 270 277 283 286 280 267 253 242 237 235 236 242 253 268 277 280 293 303 300 300 300 293 277 258 245 236 232 232 230 228 224 221 223 225 222 222 224 222 218 218 219 219 221 224 225 225 223 218 215 213 211 211 211 210 210 211 212 213 215 215 215 215 216 217 218
180 195 198 196 184 140 171 255 223 146 183 216 211 272 274 253 150 184 197 86 86 131 152 181 197 207 214 214 224 237 251 264 279 290 294 293 281 262 245 233 227 229 232 237 246 257 262 267 282 296 295 294 295 293 284 267 252 241 234 232 233 231 227 224 225 225 224 224 224 219 217 218 218 220 225 229 228 226 223 220 218 216 214 213 213 213 213 213 214 215 216 216 216 217 218 218 218